Weather observations for the past three days for
Charlevoix, Charlevoix Municipal Airport
Imperial (Metric)
Date Time (edt) Wind (mph) Vis. (mi.) Weather Sky Cond. Temperature (ºF) Relative Humidity Wind Chill (°F) Heat Index (°F) Pressure Precipitation (in)
Air Dwpt 6 hour altimeter (in) sea level (mb) 1 hr 3 hr 6 hr
Max. Min.
31 05:55 SE 7 5.00 Light Rain Fog/Mist SCT003 BKN009 OVC075 68 68 100% 29.94 0.0 0.06
31 05:35 SE 7 4.00 Light Rain Fog/Mist BKN010 BKN038 OVC090 68 68 100% 29.95 0.0
31 05:15 SE 3 4.00 Light Rain Fog/Mist SCT009 BKN012 OVC070 68 68 100% 29.96 0.0
31 04:55 E 1 4.00 Light Rain Fog/Mist BKN017 BKN045 BKN100 68 68 100% 29.97 0.0 0.02
31 04:35 S 2 8.00 Light Rain SCT015 BKN045 BKN070 68 68 100% 29.96 0.0
31 04:15 E 5 10.00 Mostly Cloudy FEW029 SCT044 BKN120 68 68 100% 29.95 0.0
31 03:55 E 5 10.00 Overcast FEW016 SCT029 OVC044 68 68 100% 29.96 0.0
31 03:35 SE 1 10.00 Overcast SCT018 OVC046 68 68 100% 29.97 0.0
31 03:15 Vrbl 2 10.00 Mostly Cloudy BKN048 68 68 100% 29.96 0.0
31 02:55 E 7 10.00 Fair CLR 68 68 100% 29.94 0.0
31 02:35 E 8 10.00 A Few Clouds FEW055 68 68 100% 29.94 0.0
31 02:15 E 6 10.00 Fair CLR 69.8 68 94% 29.95 0.0
31 01:55 SE 5 10.00 Partly Cloudy SCT042 SCT070 69.8 68 70.3 69.1 94% 29.96 0.0
31 01:35 SE 5 10.00 Overcast OVC042 69.8 68 94% 29.96 0.0
31 01:15 SE 7 10.00 Overcast BKN042 BKN050 OVC075 69.8 68 94% 29.95 0.0
31 00:55 E 9 10.00 Overcast SCT042 OVC050 69.8 68 94% 29.96 0.0
31 00:35 E 8 10.00 Overcast FEW039 OVC049 69.8 68 94% 29.96 0.0
31 00:15 SE 9 10.00 Overcast OVC039 69.8 68 94% 29.96 0.0
30 23:55 SE 7 10.00 Overcast OVC035 69.8 68 94% 29.96 0.0
30 23:35 E 7 10.00 Overcast BKN037 BKN045 OVC050 69.8 68 94% 29.97 0.0
30 23:15 SE 6 6.00 Fog/Mist BKN028 BKN039 OVC050 69.8 68 94% 29.96 0.0
30 22:55 E 7 10.00 Overcast OVC028 69.8 68 94% 29.97 0.0
30 22:35 SE 6 10.00 Overcast OVC028 69.8 68 94% 29.97 0.0
30 22:15 SE 8 10.00 Overcast OVC028 69.8 68 94% 29.97 0.0
30 21:55 SE 8 10.00 Overcast OVC028 69.8 68 94% 29.97 0.0
30 21:35 E 8 10.00 Overcast FEW016 OVC028 69.8 68 94% 29.96 0.0
30 21:15 E 7 10.00 Overcast OVC028 69.8 68 94% 29.95 0.0
30 20:55 E 6 10.00 Overcast OVC030 69.8 68 94% 29.96 0.0
30 20:35 E 6 10.00 Overcast SCT009 OVC030 69.8 68 94% 29.95 0.0
30 20:15 E 8 10.00 Overcast BKN009 OVC032 69.8 68 94% 29.95 0.0
30 19:55 E 7 10.00 Overcast OVC034 69.8 68 73.6 70.3 94% 29.95 0.0
30 19:35 E 5 10.00 Overcast OVC034 69.8 68 94% 29.95 0.0
30 19:15 E 6 10.00 Overcast OVC036 69.8 68 94% 29.95 0.0
30 18:55 E 7 10.00 Mostly Cloudy BKN037 BKN055 69.8 68 94% 29.95 0.0
30 18:35 E 9 10.00 Overcast OVC037 69.8 68 94% 29.95 0.0
30 18:15 NE 8 10.00 Overcast OVC037 71.6 68 88% 29.96 0.0
30 17:55 E 3 10.00 Light Rain OVC037 71.6 68 88% 29.96 0.0
30 17:35 E 6 10.00 Overcast OVC039 71.6 66.2 83% 29.95 0.0
30 17:15 NE 3 10.00 Overcast BKN039 OVC045 71.6 66.2 83% 29.97 0.0
30 16:55 E 7 10.00 Overcast BKN038 OVC046 71.6 66.2 83% 29.96 0.0
30 16:35 E 6 10.00 Overcast FEW027 OVC040 71.6 66.2 83% 29.96 0.0
30 16:15 E 7 10.00 Overcast BKN027 OVC042 71.6 66.2 83% 29.95 0.0
30 15:55 E 7 10.00 Overcast OVC027 71.6 66.2 83% 29.96 0.0
30 15:35 E 7 10.00 Overcast BKN029 OVC047 71.6 66.2 83% 29.96 0.0
30 15:15 SE 5 10.00 Overcast OVC031 71.6 66.2 83% 29.96 0.0
30 14:55 SE 6 10.00 Overcast OVC031 71.6 66.2 83% 29.95 0.0
30 14:35 S 6 10.00 Overcast OVC029 71.6 66.2 83% 29.96 0.0
30 14:15 SE 6 10.00 Overcast FEW015 OVC029 73.4 66.2 78% 29.96 0.0
30 13:55 S 6 10.00 Overcast FEW015 OVC027 73.4 66.2 73.9 64.8 78% 29.96 0.0
30 13:35 Vrbl 3 10.00 Overcast FEW017 OVC027 73.4 66.2 78% 29.96 0.0
30 13:15 S 6 10.00 Overcast FEW015 OVC027 71.6 66.2 83% 29.96 0.0
30 12:55 Vrbl 6 10.00 Overcast FEW015 OVC027 71.6 66.2 83% 29.96 0.0
30 12:35 S 7 10.00 Overcast OVC027 71.6 66.2 83% 29.96 0.0
30 12:15 SW 6 10.00 Overcast OVC031 71.6 66.2 83% 29.96 0.0
30 11:55 Vrbl 5 10.00 Overcast OVC031 71.6 66.2 83% 29.97 0.0
30 11:35 S 7 10.00 Overcast OVC029 69.8 64.4 83% 29.97 0.0
30 11:15 SE 7 10.00 Overcast OVC031 68 64.4 88% 29.97 0.0
30 10:55 S 8 10.00 Overcast OVC033 68 64.4 88% 29.97 0.0
30 10:35 S 6 10.00 Overcast OVC033 68 64.4 88% 29.96 0.0
30 10:15 S 7 10.00 Overcast OVC031 68 64.4 88% 29.97 0.0
30 09:55 SE 6 10.00 Overcast OVC029 66.2 64.4 94% 29.97 0.0
30 09:35 SE 6 10.00 Overcast OVC029 66.2 64.4 94% 29.96 0.0
30 09:15 SE 5 10.00 Overcast OVC029 66.2 62.6 88% 29.96 0.0
30 08:55 SE 5 10.00 Overcast OVC031 66.2 62.6 88% 29.96 0.0
30 08:35 SE 5 10.00 Overcast OVC029 64.4 62.6 94% 29.96 0.0
30 08:15 SE 6 10.00 Overcast OVC031 64.4 62.6 94% 29.96 0.0
30 07:35 SE 7 10.00 Overcast OVC031 64.4 62.6 94% 29.95 0.0
30 07:15 SE 8 10.00 Overcast OVC029 64.4 62.6 94% 29.95 0.0
30 06:55 SE 7 10.00 Overcast BKN031 OVC039 64.4 62.6 94% 29.95 0.0
30 06:35 SE 6 10.00 Overcast BKN033 OVC039 64.4 62.6 94% 29.95 0.0
30 06:15 SE 7 10.00 Overcast BKN036 OVC042 64.4 62.6 94% 29.95 0.0
30 05:55 Vrbl 5 10.00 Overcast OVC038 64.4 62.6 94% 29.96 0.0
30 05:35 SE 8 10.00 Overcast OVC038 64.4 62.6 94% 29.96 0.0
30 05:15 SE 8 10.00 Overcast BKN042 OVC050 64.4 62.6 94% 29.96 0.0
30 04:55 SE 7 10.00 Overcast BKN048 OVC055 64.4 62.6 94% 29.97 0.0
30 04:35 SE 8 10.00 Overcast FEW046 BKN055 OVC070 64.4 62.6 94% 29.97 0.0
30 04:15 SE 9 10.00 Overcast BKN046 BKN050 OVC070 64.4 62.6 94% 29.97 0.0
30 03:55 SE 10 10.00 Overcast FEW050 OVC070 64.4 62.6 94% 29.98 0.0
30 03:35 SE 9 10.00 Overcast OVC070 64.4 62.6 94% 29.98 0.0
30 03:15 SE 10 10.00 Overcast OVC080 64.4 62.6 94% 29.99 0.0
30 02:55 SE 9 10.00 Overcast OVC080 64.4 62.6 94% 30 0.0
30 02:35 SE 8 10.00 Overcast OVC080 64.4 62.6 94% 30.02 0.0
30 02:15 SE 7 10.00 Overcast FEW065 OVC080 64.4 62.6 94% 30.03 0.0
30 01:55 SE 7 10.00 Light Rain SCT060 OVC080 64.4 62.6 67.6 63.9 94% 30.04 0.0 0.02
30 01:35 SE 7 10.00 Light Rain SCT060 OVC080 64.4 62.6 94% 30.04 0.0
30 01:15 SE 8 8.00 Light Rain FEW060 OVC080 64.4 62.6 94% 30.04 0.0
30 00:55 SE 7 7.00 Light Rain SCT070 OVC080 64.4 64.4 100% 30.05 0.0 0.06
30 00:35 SE 3 7.00 Light Rain Fog/Mist FEW046 BKN055 OVC070 64.4 64.4 100% 30.06 0.0
30 00:15 S 5 5.00 Light Rain Fog/Mist BKN048 BKN055 BKN070 64.4 64.4 100% 30.06 0.0
29 23:55 SW 3 6.00 Light Rain Fog/Mist SCT050 OVC070 64.4 64.4 100% 30.06 0.0 0.04
29 23:35 SW 5 5.00 Light Rain Fog/Mist OVC075 64.4 62.6 94% 30.06 0.0
29 23:15 SW 7 7.00 Light Rain Fog/Mist FEW011 FEW025 OVC085 64.4 64.4 100% 30.06 0.0
29 22:55 SW 8 7.00 Light Rain Fog/Mist BKN011 BKN025 OVC037 66.2 64.4 94% 30.06 0.0 0.04
29 22:35 SW 3 5.00 Light Rain Fog/Mist SCT008 BKN019 OVC070 66.2 66.2 100% 30.06 0.0
29 22:15 SW 7 5.00 Light Rain Fog/Mist BKN021 BKN034 OVC070 66.2 66.2 100% 30.06 0.0
29 21:55 SW 5 7.00 Light Rain SCT013 BKN080 OVC100 66.2 64.4 94% 30.06 0.0 0.03
29 21:35 SW 5 7.00 Light Rain FEW045 SCT085 OVC110 66.2 64.4 94% 30.06 0.0
29 21:15 SW 3 10.00 Light Rain SCT047 BKN085 OVC110 66.2 64.4 94% 30.05 0.0
29 20:55 SW 3 10.00 Overcast SCT032 BKN040 OVC085 68 64.4 88% 30.04 0.0
29 20:35 SW 3 10.00 Mostly Cloudy SCT033 BKN039 BKN080 68 64.4 88% 30.04 0.0
29 20:15 SW 5 10.00 Partly Cloudy FEW049 SCT080 SCT120 68 64.4 88% 30.04 0.0
29 19:55 SW 6 10.00 Mostly Cloudy BKN049 BKN080 BKN120 68 64.4 76.3 67.6 88% 30.04 0.0
29 19:35 SW 5 10.00 Overcast FEW039 OVC049 68 64.4 88% 30.04 0.0
29 19:15 SW 3 10.00 Overcast FEW039 OVC049 68 64.4 88% 30.04 0.0
29 18:55 W 6 10.00 Overcast FEW038 OVC049 68 64.4 88% 30.04 0.0
29 18:35 W 7 10.00 Light Rain BKN040 OVC045 68 62.6 83% 30.04 0.0
29 18:15 W 13 G 18 10.00 Overcast BKN040 BKN046 OVC120 69.8 64.4 83% 30.04 0.0
29 17:55 W 16 10.00 Overcast SCT033 SCT085 OVC120 71.6 64.4 78% 30.04 0.0
29 17:35 W 13 G 18 10.00 Overcast SCT037 SCT047 OVC085 71.6 66.2 83% 30.03 0.0
29 17:15 SW 12 10.00 Mostly Cloudy BKN085 71.6 64.4 78% 30.03 0.0
29 16:55 SW 12 10.00 Overcast FEW055 OVC085 71.6 62.6 73% 30.04 0.0
29 16:35 W 12 10.00 Mostly Cloudy SCT050 SCT065 BKN085 73.4 62.6 69% 30.04 0.0
29 16:15 SW 9 10.00 Overcast BKN050 BKN065 OVC090 73.4 62.6 69% 30.05 0.0
29 15:55 W 9 10.00 Light Rain BKN050 OVC065 73.4 62.6 69% 30.05 0.0
29 15:35 W 7 10.00 Overcast OVC050 73.4 60.8 65% 30.05 0.0
29 15:15 W 9 10.00 Overcast OVC050 73.4 60.8 65% 30.05 0.0
29 14:55 SW 9 10.00 Mostly Cloudy BKN048 BKN060 73.4 59 61% 30.06 0.0
29 14:35 SW 10 10.00 Mostly Cloudy BKN048 73.4 59 61% 30.05 0.0
29 14:15 SW 10 10.00 Partly Cloudy SCT050 SCT120 75.2 60.8 61% 77 30.05 0.0
29 13:55 SW 9 10.00 A Few Clouds FEW120 75.2 59 76.8 67.6 57% 78 30.06 0.0
29 13:35 SW 8 10.00 Fair CLR 75.2 60.8 61% 77 30.06 0.0
29 13:15 W 12 10.00 Partly Cloudy SCT050 75.2 60.8 61% 77 30.07 0.0
29 12:55 W 10 10.00 Mostly Cloudy BKN055 75.2 60.8 61% 77 30.07 0.0
29 12:35 SW 12 10.00 A Few Clouds FEW055 75.2 60.8 61% 77 30.07 0.0
29 12:15 SW 12 10.00 Fair CLR 73.4 62.6 69% 30.08 0.0
29 11:55 W 13 G 16 10.00 A Few Clouds FEW050 75.2 62.6 65% 77 30.07 0.0
29 11:35 W 14 10.00 Fair CLR 75.2 62.6 65% 77 30.07 0.0
29 11:15 SW 14 G 21 10.00 Fair CLR 75.2 64.4 69% 77 30.07 0.0
29 10:55 SW 12 10.00 Fair CLR 73.4 64.4 74% 30.06 0.0
29 10:35 SW 10 10.00 Fair CLR 73.4 62.6 69% 30.06 0.0
29 10:15 SW 7 10.00 Fair CLR 71.6 62.6 73% 30.07 0.0
29 09:55 SW 12 10.00 Fair CLR 69.8 62.6 78% 30.07 0.0
29 09:35 SW 8 10.00 Fair CLR 69.8 62.6 78% 30.07 0.0
29 09:15 SW 8 10.00 Fair CLR 69.8 62.6 78% 30.06 0.0
29 08:55 SW 13 10.00 Fair CLR 71.6 62.6 73% 30.06 0.0
29 08:35 SW 8 10.00 Fair CLR 68 62.6 83% 30.06 0.0
29 08:15 SW 7 10.00 Fair CLR 68 60.8 78% 30.06 0.0
29 07:55 S 9 10.00 Fair CLR 68 60.8 68 59.2 78% 30.06 0.0
29 07:35 SW 10 10.00 Fair CLR 66.2 60.8 83% 30.06 0.0
29 07:15 SW 9 10.00 Fair CLR 66.2 60.8 83% 30.06 0.0
29 06:55 SW 8 10.00 Fair CLR 66.2 59 78% 30.06 0.0
29 06:35 S 10 10.00 Fair CLR 64.4 59 83% 30.05 0.0
29 06:15 SW 8 10.00 Fair CLR 64.4 59 83% 30.05 0.0
29 05:55 S 9 10.00 Fair CLR 64.4 59 83% 30.04 0.0
29 05:35 S 9 10.00 Fair CLR 64.4 59 83% 30.05 0.0
29 05:15 S 8 10.00 Fair CLR 64.4 59 83% 30.05 0.0
29 04:55 S 8 10.00 Fair CLR 64.4 59 83% 30.05 0.0
29 04:35 S 8 10.00 Fair CLR 62.6 57.2 83% 30.05 0.0
29 04:15 S 7 10.00 Fair CLR 62.6 57.2 83% 30.06 0.0
29 03:55 S 8 10.00 Fair CLR 62.6 57.2 83% 30.06 0.0
29 03:35 S 8 10.00 Fair CLR 60.8 57.2 88% 30.06 0.0
29 03:15 SE 7 10.00 Fair CLR 60.8 57.2 88% 30.06 0.0
29 02:55 SE 6 10.00 Fair CLR 59 55.4 88% 30.07 0.0
29 02:35 SE 6 10.00 Fair CLR 59 55.4 88% 30.07 0.0
29 02:15 SE 6 10.00 Fair CLR 59 55.4 88% 30.08 0.0
29 01:55 SE 6 10.00 Fair CLR 59 55.4 70.2 58.8 88% 30.08 0.0
29 01:35 SE 6 10.00 Fair CLR 59 55.4 88% 30.08 0.0
29 01:15 SE 6 10.00 Fair CLR 59 55.4 88% 30.09 0.0
29 00:55 SE 5 10.00 Fair CLR 60.8 55.4 83% 30.09 0.0
29 00:35 SE 6 10.00 Fair CLR 60.8 57.2 88% 30.09 0.0
29 00:15 SE 6 10.00 Fair CLR 60.8 55.4 83% 30.08 0.0
28 23:55 SE 6 10.00 Fair CLR 59 55.4 88% 30.09 0.0
28 23:35 SE 5 10.00 Fair CLR 60.8 55.4 83% 30.09 0.0
28 23:15 SE 3 10.00 Fair CLR 59 55.4 88% 30.09 0.0
28 22:55 SE 2 10.00 Fair CLR 59 55.4 88% 30.09 0.0
28 22:35 SE 2 10.00 Fair CLR 59 55.4 88% 30.09 0.0
28 22:15 SE 1 10.00 Fair CLR 60.8 55.4 83% 30.1 0.0
28 21:55 SE 3 10.00 Fair CLR 60.8 55.4 83% 30.09 0.0
28 21:35 S 1 10.00 A Few Clouds FEW095 60.8 55.4 83% 30.1 0.0
28 21:15 S 2 10.00 Partly Cloudy SCT095 62.6 55.4 77% 30.09 0.0
28 20:55 SE 1 10.00 Mostly Cloudy BKN095 64.4 57.2 78% 30.09 0.0
28 20:35 SE 1 10.00 Fair CLR 64.4 57.2 78% 30.09 0.0
28 20:15 SW 2 10.00 Fair CLR 68 55.4 64% 30.09 0.0
28 19:55 SW 3 10.00 Fair CLR 69.8 55.4 73 68.7 60% 30.09 0.0
28 19:35 W 2 10.00 Fair CLR 71.6 55.4 57% 30.09 0.0
28 19:15 NW 2 10.00 Fair CLR 71.6 55.4 57% 30.09 0.0
28 18:55 NW 3 10.00 Fair CLR 71.6 55.4 57% 30.1 0.0
28 18:35 NW 6 10.00 Fair CLR 73.4 55.4 53% 30.1 0.0
28 18:15 Vrbl 3 10.00 Fair CLR 71.6 55.4 57% 30.1 0.0
28 17:55 N 6 10.00 Fair CLR 71.6 55.4 57% 30.11 0.0
28 17:35 NW 5 10.00 Fair CLR 71.6 55.4 57% 30.11 0.0
28 17:15 N 5 10.00 Fair CLR 71.6 55.4 57% 30.11 0.0
28 16:55 N 8 10.00 Fair CLR 71.6 55.4 57% 30.12 0.0
28 16:35 N 8 10.00 Fair CLR 71.6 55.4 57% 30.12 0.0
28 16:15 N 8 10.00 Fair CLR 71.6 55.4 57% 30.13 0.0
28 15:55 N 7 10.00 Fair CLR 71.6 57.2 61% 30.13 0.0
28 15:35 N 9 10.00 Fair CLR 71.6 55.4 57% 30.13 0.0
28 15:15 N 8 10.00 Fair CLR 71.6 57.2 61% 30.14 0.0
28 14:55 N 8 10.00 Fair CLR 69.8 57.2 64% 30.14 0.0
28 14:35 N 7 10.00 Fair CLR 69.8 57.2 64% 30.15 0.0
28 14:15 N 9 10.00 A Few Clouds FEW043 69.8 57.2 64% 30.15 0.0
28 13:55 N 8 10.00 A Few Clouds FEW038 FEW045 69.8 57.2 70.5 56.3 64% 30.15 0.0
28 13:35 N 7 10.00 A Few Clouds FEW038 68 57.2 69% 30.16 0.0
28 13:15 Vrbl 6 10.00 Partly Cloudy SCT055 69.8 57.2 64% 30.16 0.0
28 12:55 N 8 10.00 Mostly Cloudy FEW035 BKN055 68 57.2 69% 30.17 0.0
28 12:35 N 10 10.00 A Few Clouds FEW055 69.8 57.2 64% 30.17 0.0
28 12:15 N 9 10.00 Partly Cloudy SCT055 68 57.2 69% 30.18 0.0
28 11:55 Vrbl 3 10.00 Partly Cloudy FEW055 SCT070 68 55.4 64% 30.17 0.0
28 11:35 Vrbl 1 10.00 Mostly Cloudy FEW027 BKN055 BKN070 68 55.4 64% 30.18 0.0
28 11:15 E 3 10.00 Partly Cloudy SCT060 SCT070 68 55.4 64% 30.18 0.0
28 10:55 SE 5 10.00 Mostly Cloudy BKN050 BKN070 64.4 55.4 73% 30.18 0.0
28 10:35 Vrbl 3 10.00 Partly Cloudy SCT050 66.2 55.4 68% 30.17 0.0
28 10:15 Vrbl 1 10.00 A Few Clouds FEW055 64.4 53.6 68% 30.17 0.0
28 09:55 SE 3 10.00 Fair CLR 64.4 53.6 68% 30.17 0.0
28 09:35 SE 6 10.00 Fair CLR 62.6 53.6 73% 30.17 0.0
28 09:15 SE 3 10.00 Fair CLR 60.8 51.8 72% 30.17 0.0
28 08:55 SE 5 10.00 Fair CLR 60.8 53.6 77% 30.17 0.0
28 08:35 SE 5 10.00 Fair CLR 59 51.8 77% 30.16 0.0
28 08:15 SE 3 10.00 Fair CLR 57.2 51.8 82% 30.16 0.0
28 07:55 SE 5 10.00 Fair CLR 57.2 51.8 62.1 54.5 82% 30.15 0.0
28 07:35 SE 2 10.00 Partly Cloudy SCT075 55.4 51.8 88% 30.15 0.0
28 07:15 SE 3 10.00 Mostly Cloudy BKN075 BKN090 55.4 51.8 88% 30.15 0.0
28 06:55 SE 2 10.00 Overcast OVC075 55.4 51.8 88% 30.14 0.0
28 06:35 SE 3 10.00 Overcast BKN070 OVC095 55.4 51.8 88% 30.14 0.0
28 06:15 SE 2 10.00 Overcast SCT070 OVC095 55.4 53.6 94% 30.13 0.0
Date Time (edt) Wind (mph) Vis. (mi.) Weather Sky Cond. Air Dwpt Max. Min. Relative Humidity Wind Chill (°F) Heat Index (°F) altimeter (in) sea level (mb) 1 hr 3 hr 6 hr
6 hour
Temperature (ºF) Pressure Precipitation (in)